Location: Borz?cin
(51.1714°N, 19.6030°E)
Time: 16:49:09
(UTC+00:00)

IRS-1C Rocket - Pass Details

Date: 19 May 2025
Orbit: 798 x 805 km, 98.8° (Epoch: 20 June)

Event Time Altitude Azimuth Distance (km) Brightness Sun altitude
Exits shadow 19:34:31 - 155° (SSE) 2,488 6.0 -8.3°
Reaches altitude 10° 19:34:47 10° 155° (SSE) 2,380 5.9 -8.3°
Maximum altitude 19:40:02 74° 71° (ENE) 839 4.2 -8.9°
Drops below altitude 10° 19:45:19 10° 348° (NNW) 2,392 7.6 -9.4°
Sets 19:47:39 0° 346° (NNW) 3,326 8.6 -9.7°
